Weather Data

Pearl Creek Farm: 8878 N Farm Road 75, Walnut Grove MO 65770

<== Previous Day (Thursday 11 Sep 2014) | Next Day (Saturday 13 Sep 2014) ==>

Summary Precipitation Data For Friday 12 September 2014

ElementValueUnits
Precipitation0.01"
NotesDrizzle.
SourcePearl Creek Farm

Summary Temperature Data For Friday 12 September 2014

ElementValueUnits
High Temperature60 oF
Low Temperature53 oF
Average Temperature57 oF
High Humidity89 %
Low Humidity80 %
Average Humidity85 %
SourcePearl Creek Farm

Detail Temperature Data For Friday 12 September 2014

Date / TimeTemp (F)RH (%)Dew Pt (F)Report Date / TimeSource
2014-09-12 00:00:00 59 83 53.8 2014-11-02 13:41:02 Pearl Creek Farm
2014-09-12 00:30:00 59 84 54.0 2014-11-02 13:41:02 Pearl Creek Farm
2014-09-12 01:00:00 59 84 54.2 2014-11-02 13:41:02 Pearl Creek Farm
2014-09-12 01:30:00 59 85 54.3 2014-11-02 13:41:02 Pearl Creek Farm
2014-09-12 02:00:00 59 85 54.3 2014-11-02 13:41:02 Pearl Creek Farm
2014-09-12 02:30:00 59 84 54.0 2014-11-02 13:41:02 Pearl Creek Farm
2014-09-12 03:00:00 59 84 54.2 2014-11-02 13:41:02 Pearl Creek Farm
2014-09-12 03:30:00 58 85 53.4 2014-11-02 13:41:02 Pearl Creek Farm
2014-09-12 04:00:00 58 84 53.2 2014-11-02 13:41:02 Pearl Creek Farm
2014-09-12 04:30:00 58 86 53.7 2014-11-02 13:41:02 Pearl Creek Farm
2014-09-12 05:00:00 58 87 54.0 2014-11-02 13:41:02 Pearl Creek Farm
2014-09-12 05:30:00 57 87 53.2 2014-11-02 13:41:02 Pearl Creek Farm
2014-09-12 06:00:00 57 87 53.2 2014-11-02 13:41:02 Pearl Creek Farm
2014-09-12 06:30:00 57 87 53.2 2014-11-02 13:41:02 Pearl Creek Farm
2014-09-12 07:00:00 57 88 53.3 2014-11-02 13:41:02 Pearl Creek Farm
2014-09-12 07:30:00 56 88 52.3 2014-11-02 13:41:02 Pearl Creek Farm
2014-09-12 08:00:00 56 89 52.7 2014-11-02 13:41:02 Pearl Creek Farm
2014-09-12 08:30:00 56 89 52.8 2014-11-02 13:41:02 Pearl Creek Farm
2014-09-12 09:00:00 55 89 51.8 2014-11-02 13:41:02 Pearl Creek Farm
2014-09-12 09:30:00 55 89 51.8 2014-11-02 13:41:02 Pearl Creek Farm
2014-09-12 10:00:00 57 89 53.8 2014-11-02 13:41:02 Pearl Creek Farm
2014-09-12 10:30:00 57 89 53.6 2014-11-02 13:41:02 Pearl Creek Farm
2014-09-12 11:00:00 58 87 54.0 2014-11-02 13:41:02 Pearl Creek Farm
2014-09-12 11:30:00 59 86 54.7 2014-11-02 13:41:02 Pearl Creek Farm
2014-09-12 12:00:00 60 83 54.7 2014-11-02 13:41:02 Pearl Creek Farm
2014-09-12 12:30:00 60 81 54.0 2014-11-02 13:41:02 Pearl Creek Farm
2014-09-12 13:00:00 60 82 54.5 2014-11-02 13:41:02 Pearl Creek Farm
2014-09-12 13:30:00 60 80 53.8 2014-11-02 13:41:02 Pearl Creek Farm
2014-09-12 14:00:00 60 80 53.8 2014-11-02 13:41:02 Pearl Creek Farm
2014-09-12 14:30:00 60 81 54.0 2014-11-02 13:41:02 Pearl Creek Farm
2014-09-12 15:00:00 59 81 53.0 2014-11-02 13:41:02 Pearl Creek Farm
2014-09-12 15:30:00 57 83 51.9 2014-11-02 13:41:02 Pearl Creek Farm
2014-09-12 16:00:00 57 83 51.9 2014-11-02 13:41:02 Pearl Creek Farm
2014-09-12 16:30:00 58 84 53.0 2014-11-02 13:41:02 Pearl Creek Farm
2014-09-12 17:00:00 57 83 51.7 2014-11-02 13:41:02 Pearl Creek Farm
2014-09-12 17:30:00 56 83 50.8 2014-11-02 13:41:02 Pearl Creek Farm
2014-09-12 18:00:00 56 83 50.9 2014-11-02 13:41:02 Pearl Creek Farm
2014-09-12 18:30:00 55 84 50.3 2014-11-02 13:41:02 Pearl Creek Farm
2014-09-12 19:00:00 54 85 49.6 2014-11-02 13:41:02 Pearl Creek Farm
2014-09-12 19:30:00 54 85 49.6 2014-11-02 13:41:02 Pearl Creek Farm
2014-09-12 20:00:00 54 85 49.4 2014-11-02 13:41:02 Pearl Creek Farm
2014-09-12 20:30:00 54 84 49.1 2014-11-02 13:41:02 Pearl Creek Farm
2014-09-12 21:00:00 54 84 49.1 2014-11-02 13:41:02 Pearl Creek Farm
2014-09-12 21:30:00 54 84 49.1 2014-11-02 13:41:02 Pearl Creek Farm
2014-09-12 22:00:00 54 84 49.3 2014-11-02 13:41:02 Pearl Creek Farm
2014-09-12 22:30:00 53 85 48.6 2014-11-02 13:41:02 Pearl Creek Farm
2014-09-12 23:00:00 53 85 48.6 2014-11-02 13:41:02 Pearl Creek Farm
2014-09-12 23:30:00 53 84 48.3 2014-11-02 13:41:02 Pearl Creek Farm

A total of 48 rows are displayed.